Home > Weather > Drammen > Past weeks

Flag for Norway Past Weather in Drammen, Norway — Yesterday and Last 2 Weeks

Now
52 °F

Overcast.


Feels Like: 48 °F
Forecast: 57 / 70 °F
Wind: 12 mph from Northeast

Location: Statfjord B

Current Time: Aug 25, 2016 at 3:29:50 PM

Latest Report: Aug 25, 2016 at 2:50 PM


Visibility: N/A

Pressure: 30.12 "Hg

Humidity: 82%

Dew Point: 46 °F

Location of DrammenLocation

Past Weather in Drammen — Graph

°F

Drammen Temperature Yesterday

Maximum temperature yesterday: 59 °F (at 1:20 PM)
Minimum temperature yesterday: 54 °F (at 11:20 PM)
Average temperature yesterday: 57 °F

High & Low Weather Summary for the Past Weeks

 TemperatureHumidityPressure
High63 °F (Aug 17, 10:20 AM)100% (Aug 12, 2:20 AM)30.30 "Hg (Aug 12, 2:20 AM)
Low48 °F (Aug 11, 1:50 AM)54% (Aug 10, 1:50 PM)29.50 "Hg (Aug 12, 12:50 PM)
Average55 °F89%29.99 "Hg
* Reported Aug 10 1:20 PM — Aug 25 1:50 PM, Drammen, Weather by CustomWeather, © 2016

Note: Actual official high and low records may vary slightly from our data, if they occured in-between our weather recording intervals... More about our weather records

Advertising

Drammen Weather History for the Previous 24 Hours

Scroll right to see more
 ConditionsComfort  
Time TempWeatherWind HumidityBarometerVisibility
1:50 PM
Thu, Aug 25
52 °FOvercast.8 mph82%30.15 "HgN/A
1:20 PM52 °FOvercast.10 mph82%30.15 "HgN/A
12:50 PM52 °FOvercast.8 mph82%30.15 "HgN/A
12:20 PM54 °FOvercast.8 mph77%30.15 "HgN/A
11:50 AM52 °FOvercast.9 mph82%30.15 "HgN/A
11:20 AM52 °FOvercast.7 mph82%30.15 "HgN/A
10:50 AM52 °FOvercast.7 mph88%30.15 "HgN/A
10:20 AM52 °FOvercast.7 mph88%30.15 "HgN/A
9:50 AM52 °FOvercast.8 mph88%30.15 "HgN/A
9:20 AM52 °FOvercast.9 mph88%30.15 "HgN/A
8:50 AM52 °FOvercast.10 mph88%30.15 "HgN/A
8:20 AM52 °FOvercast.7 mph88%30.15 "HgN/A
7:50 AM52 °FOvercast.8 mph88%30.15 "HgN/A
7:20 AM52 °FOvercast.7 mph88%30.15 "HgN/A
6:50 AM52 °FOvercast.7 mph88%30.15 "HgN/A
6:20 AM54 °FOvercast.7 mph88%30.15 "HgN/A
5:50 AM54 °FOvercast.7 mph88%30.15 "HgN/A
5:20 AM54 °FOvercast.6 mph88%30.15 "HgN/A
4:50 AM54 °FOvercast.7 mph88%30.18 "HgN/A
4:20 AM54 °FOvercast.8 mph88%30.18 "HgN/A
3:50 AM54 °FOvercast.10 mph88%30.15 "HgN/A
3:20 AM54 °FOvercast.10 mph94%30.15 "HgN/A
2:50 AM54 °FPassing clouds.10 mph94%30.15 "HgN/A
2:20 AM54 °FPassing clouds.10 mph94%30.15 "HgN/A
1:50 AM54 °FOvercast.8 mph94%30.15 "HgN/A
1:20 AM54 °FLow clouds.10 mph100%30.15 "HgN/A
12:50 AM54 °FSprinkles. Fog.10 mph100%30.15 "Hg3 mi
12:20 AM54 °FDrizzle. Low clouds.6 mph94%30.15 "Hg5 mi
11:50 PM
Wed, Aug 24
54 °FLow clouds.10 mph94%30.15 "HgN/A
11:20 PM54 °FLow clouds.7 mph94%30.15 "HgN/A
10:50 PM55 °FLow clouds.9 mph94%30.15 "HgN/A
10:20 PM55 °FOvercast.8 mph94%30.15 "HgN/A
9:50 PM55 °FOvercast.12 mph94%30.12 "HgN/A
9:20 PM55 °FOvercast.10 mph88%30.12 "HgN/A
8:50 PM55 °FLow clouds.12 mph94%30.12 "HgN/A
8:20 PM55 °FLow clouds.13 mph94%30.12 "HgN/A
7:50 PM55 °FLow clouds.13 mph94%30.09 "HgN/A
7:20 PM55 °FLow clouds.12 mph94%30.09 "HgN/A
6:50 PM55 °FLow clouds.10 mph94%30.09 "HgN/A
6:20 PM55 °FPartly sunny.12 mph94%30.09 "HgN/A
5:50 PM57 °FLow clouds.13 mph88%30.09 "HgN/A
5:20 PM57 °FLow clouds.13 mph94%30.09 "HgN/A
4:50 PM57 °FPartly sunny.13 mph94%30.07 "HgN/A
4:20 PM57 °FFog.13 mph94%30.07 "Hg1 mi
3:50 PM57 °FPartly sunny.13 mph94%30.07 "HgN/A
3:20 PM57 °FLow clouds.12 mph94%30.07 "HgN/A
Weather by CustomWeather, © 2016

See weather overviewHow to use our weather pages